Regional Weather Roundup
Issued by NWS Kansas City/Pleasant Hill, MO

Home | Current Version | Previous Version | Graphics & Text | Print | Product List | Glossary Off
Versions: 1 2 3 4 5 6 7 8 9 10 11 12 13 14 15 16 17 18 19 20 21 22 23 24 25 26 27

000
ASUS43 KEAX 282110
RWREAX

WEATHER ROUNDUP FOR EASTERN KANSAS AND NORTHWEST MISSOURI
NATIONAL WEATHER SERVICE KANSAS CITY/PLEASANT HILL MO
400 PM CDT WED JUN 28 2017

KSZ040-057-103>105-MOZ028-029-037-043-282200-
...KANSAS CITY METROPOLITAN AREA...

CITY           SKY/WX    TMP DP  RH WIND       PRES   REMARKS
K.C. INTL      MOSUNNY   88  72  58 SW17G28   29.77S HX  94
K.C. DOWNTOWN  MOSUNNY   90  70  51 SW22G32   29.77S HX  95
LEES SUMMIT    MOSUNNY   87  71  58 S23G33    29.80S HX  93
OLATHE - IXD   MOSUNNY   89  69  51 S17G35    29.79S HX  93
OLATHE - OJC   PTSUNNY   87  70  56 S23G31    29.79F HX  92
LAWRENCE       MOSUNNY   90  71  53 S20G28    29.75F HX  96

$$

MOZ001>008-011>017-020>025-030>033-038>040-044>046-053-054-282200-
...NORTHERN AND CENTRAL MISSOURI...

CITY           SKY/WX    TMP DP  RH WIND       PRES   REMARKS
ST. JOSEPH     PTSUNNY   87  73  62 S16G32    29.73S HX  94
MOSBY          PTCLDY    88  68  51 S15G28    29.78R HX  91
WARRENSBURG    PTSUNNY   84  68  58 S18G26    29.82S
WHITEMAN AFB   MOSUNNY   86  73  64 S20G25    29.82F HX  94
CLINTON        MOSUNNY   86  72  62 S13G23    29.85S HX  92
SEDALIA        MOSUNNY   87  73  62 S17G23    29.85F HX  94
WARSAW         NOT AVBL
CHILLICOTHE      N/A     87  71  58 S17G25    29.78S HX  93
KIRKSVILLE     PTSUNNY   87  69  54 S21G29    29.81S HX  91

$$

MOZ041-047>049-056>058-063>065-088>090-097-282200-
...EASTERN AND SOUTHERN MISSOURI...

CITY           SKY/WX    TMP DP  RH WIND       PRES   REMARKS
ST. LOUIS INTL PTSUNNY   89  62  40 S18G26    29.89F
SPIRIT OF STL  MOSUNNY   87  64  46 S16G26    29.86F
COLUMBIA       SUNNY     87  67  51 S20G30    29.85F HX  90
JEFFERSON CITY SUNNY     89  66  46 S14G22    29.84F HX  91
ROLLA          SUNNY     86  64  47 S22G30    29.90F
OSAGE BEACH    SUNNY     86  68  54 S17G24    29.88F
SPRINGFIELD    SUNNY     85  67  54 S20G30    29.90F
BRANSON        PTSUNNY   84  66  54 SE10G18   29.95F
JOPLIN         MOSUNNY   88  71  57 S18G29    29.87S HX  94
WEST PLAINS    SUNNY     85  62  46 S12       29.98F

$$

IAZ060-094-KSZ022-034>040-054-083-096-NEZ052-066-093-282200-
...KANSAS...SOUTHEAST NEBRASKA AND IOWA...

CITY           SKY/WX    TMP DP  RH WIND       PRES   REMARKS
TOPEKA         MOSUNNY   91  70  49 SW21G32   29.74R HX  96
MANHATTAN      PTSUNNY   94  69  44 S17G26    29.70S HX  99
EMPORIA        SUNNY     89  69  51 S23G35    29.77F HX  93
CHANUTE        MOSUNNY   91  69  48 S25G36    29.82F HX  96
WICHITA        MOSUNNY   94  65  38 S24G36    29.75S HX  96
OMAHA          PTSUNNY   90  69  50 SW14      29.65S HX  94
LINCOLN        MOSUNNY   91  70  49 W13       29.68R HX  96
FALLS CITY     PTSUNNY   89  70  53 SW24G30   29.68F HX  94
LAMONI         PTSUNNY   85  71  63 S17G29    29.73F HX  90
DES MOINES     PTSUNNY   84  70  62 S18G26    29.68F

$$





USA.gov is the U.S. government's official web portal to all federal, state and local government web resources and services.